User: anonymous   Login
Location: Narvik
(68.4360°N, 17.4370°E)
Time: 09:21:36
(UTC+02:00)
Language:

YUBILEINY - Orbit

View from above orbital plane
View from above orbital plane
View from above satellite
View from above satellite

Ground track
Ground track

The orbit data is extracted from the following two-line orbital elements,

1 32953U 08025A   19263.08631125  .00000020  00000-0  75656-4 0  9999
2 32953  82.4982  86.6803 0018779 287.0945  72.8075 12.43091270513912
Epoch (UTC): 20 September 2019 02:04:17
Eccentricity: 0.0018779
inclination: 82.4982°
perigee height: 1479 km
apogee height: 1508 km
right ascension of ascending node: 86.6803°
argument of perigee: 287.0945°
revolutions per day: 12.43091270
mean anomaly at epoch: 72.8075°
orbit number at epoch: 51391

The dashed part of the orbit path shows where the satellite is in the earth's shadow,  

DLR